Location: St. Louis
(38.6270°N, 90.1994°W)
Time: 05:38:17
(UTC-06:00)

Explorer 7 - Pass Details

Date: 09 December 2021
Orbit: 483 x 674 km, 50.3° (Epoch: 19 January)

Event Time Altitude Azimuth Distance (km) Brightness Sun altitude
Exits shadow 06:01:16 14° 323° (NW) 1,630 8.7 -12.6°
Maximum altitude 06:03:01 17° 352° (N) 1,444 8.7 -12.2°
Drops below altitude 10° 06:05:47 10° 34° (NE) 1,812 9.6 -11.7°
Sets 06:08:36 0° 56° (NE) 2,665 10.9 -11.2°
